TimeCST,TemperatureF,Dew PointF,Humidity,Sea Level PressureIn,VisibilityMPH,Wind Direction,Wind SpeedMPH,Gust SpeedMPH,PrecipitationIn,Events,Conditions,WindDirDegrees,DateUTC
12:53 AM,37.0,32.0,82,30.22,10.0,North,4.6,-,N/A,,Clear,350,2012-12-12 06:53:00
1:53 AM,39.0,30.9,73,30.22,10.0,North,3.5,-,N/A,,Partly Cloudy,350,2012-12-12 07:53:00
2:53 AM,35.1,30.0,82,30.22,10.0,NNE,5.8,-,N/A,,Clear,20,2012-12-12 08:53:00
3:53 AM,36.0,30.0,79,30.23,10.0,North,3.5,-,N/A,,Clear,360,2012-12-12 09:53:00
4:53 AM,34.0,28.9,82,30.24,10.0,NNE,5.8,-,N/A,,Clear,20,2012-12-12 10:53:00
5:53 AM,32.0,27.0,82,30.25,10.0,NNE,5.8,-,N/A,,Clear,20,2012-12-12 11:53:00
6:53 AM,30.9,27.0,85,30.27,10.0,NNE,5.8,-,N/A,,Clear,20,2012-12-12 12:53:00
7:53 AM,35.1,30.0,82,30.30,10.0,North,4.6,-,N/A,,Clear,360,2012-12-12 13:53:00
8:53 AM,45.0,34.0,65,30.32,10.0,NNE,8.1,-,N/A,,Clear,30,2012-12-12 14:53:00
9:53 AM,50.0,34.0,54,30.33,10.0,NE,8.1,-,N/A,,Clear,50,2012-12-12 15:53:00
10:53 AM,54.0,30.9,41,30.33,10.0,NE,9.2,-,N/A,,Clear,40,2012-12-12 16:53:00
11:53 AM,55.9,27.0,33,30.32,10.0,NE,8.1,-,N/A,,Clear,40,2012-12-12 17:53:00
12:53 PM,59.0,24.1,26,30.28,10.0,North,9.2,-,N/A,,Clear,10,2012-12-12 18:53:00
1:53 PM,61.0,25.0,25,30.26,10.0,NE,9.2,-,N/A,,Clear,40,2012-12-12 19:53:00
2:53 PM,60.1,24.1,25,30.25,10.0,NE,5.8,-,N/A,,Clear,50,2012-12-12 20:53:00
3:53 PM,59.0,26.1,28,30.25,10.0,ENE,5.8,-,N/A,,Clear,70,2012-12-12 21:53:00
4:53 PM,55.0,32.0,42,30.25,10.0,ESE,5.8,-,N/A,,Clear,110,2012-12-12 22:53:00
5:53 PM,50.0,33.1,52,30.26,10.0,ESE,3.5,-,N/A,,Clear,110,2012-12-12 23:53:00
6:53 PM,48.0,32.0,54,30.27,10.0,East,3.5,-,N/A,,Clear,90,2012-12-13 00:53:00
7:53 PM,39.0,32.0,76,30.28,10.0,Calm,Calm,-,N/A,,Clear,0,2012-12-13 01:53:00
8:53 PM,37.9,32.0,79,30.30,10.0,Calm,Calm,-,N/A,,Clear,0,2012-12-13 02:53:00
9:53 PM,37.0,32.0,82,30.30,10.0,Calm,Calm,-,N/A,,Clear,0,2012-12-13 03:53:00
10:53 PM,35.1,32.0,89,30.30,10.0,Calm,Calm,-,N/A,,Clear,0,2012-12-13 04:53:00
11:53 PM,35.1,33.1,92,30.30,10.0,NE,4.6,-,N/A,,Clear,50,2012-12-13 05:53:00